Powrót do katalogu

STARLINK-37640

AktywnyŁącznośćVLEO
NORAD 69447·PAYLOAD·🇺🇸 United States

Wystrzelony Jun 8, 2026 z Cape Canaveral Space Force Station

Loading…

Następne Przeloty (najbliższe 24 godziny)

TLE

ŚwieżeSource: CelesTrak SupGP

Epoka: Sep 15, 2026, 04:28 UTC

1 69447C 26127E   26258.18659722 -.00033723  00000+0 -99658-3 0  2588
2 69447  53.1582 190.9108 0001290  88.6749 192.2225 15.34400328    12

Śledź STARLINK-37640 w czasie rzeczywistym z AllMySat

Download on the App Store